This is the latest recevied weather packets stored in our database for station/object N8AMF. If no packets are shown the sender has not sent any weather packets the latest 1 day(s).
| Time | Temp. | Humidity | Pressure | Rain* | Wind** | Luminosity | Snow |
|---|---|---|---|---|---|---|---|
| 1777985459 | 16.67° C | 71% | 1005 hPa | 0 mm | 0.45 m/s, 162° | 136 W/m² | - |
| 1777985155 | 16.67° C | 71% | 1005 hPa | 0 mm | 1.34 m/s, 216° | 134 W/m² | - |
| 1777984851 | 16.67° C | 72% | 1005.1 hPa | 0 mm | 0.45 m/s, 225° | 146 W/m² | - |
| 1777984548 | 16.67° C | 71% | 1004.8 hPa | 0 mm | 0.45 m/s, 187° | 132 W/m² | - |
| 1777984244 | 16.67° C | 71% | 1004.8 hPa | 0 mm | 0.89 m/s, 183° | 113 W/m² | - |
| 1777983941 | 16.67° C | 71% | 1004.8 hPa | 0 mm | 1.34 m/s, 230° | 97 W/m² | - |
| 1777983638 | 16.67° C | 70% | 1004.8 hPa | 0 mm | 2.24 m/s, 200° | 71 W/m² | - |
| 1777983334 | 16.67° C | 70% | 1004.7 hPa | 0 mm | 1.34 m/s, 67° | 51 W/m² | - |
| 1777983032 | 16.67° C | 71% | 1004.6 hPa | 0 mm | 0.45 m/s, 17° | 44 W/m² | - |
| 1777982728 | 16.67° C | 70% | 1004.3 hPa | 0 mm | 0.45 m/s, 303° | 44 W/m² | - |
| 1777982423 | 16.67° C | 71% | 1004.2 hPa | 0 mm | 0.89 m/s, 248° | 41 W/m² | - |
| 1777982118 | 16.67° C | 71% | 1003.9 hPa | 0 mm | 0 m/s | 43 W/m² | - |
| 1777981816 | 16.67° C | 71% | 1004 hPa | 0 mm | 0 m/s | 47 W/m² | - |
| 1777981513 | 16.67° C | 71% | 1003.6 hPa | 0 mm | 1.34 m/s, 78° | 55 W/m² | - |
| 1777981209 | 16.11° C | 72% | 1003.4 hPa | 0 mm | 0.89 m/s, 224° | 55 W/m² | - |
| 1777980906 | 16.67° C | 71% | 1002.9 hPa | 0 mm | 0.45 m/s, 188° | 52 W/m² | - |
| 1777980601 | 16.67° C | 71% | 1003.1 hPa | 0 mm | 1.34 m/s, 212° | 39 W/m² | - |
| 1777980299 | 16.67° C | 70% | 1003.1 hPa | 0 mm | 0.45 m/s, 284° | 29 W/m² | - |
| 1777979996 | 16.67° C | 70% | 1003 hPa | 0 mm | 3.13 m/s, 202° | 27 W/m² | - |
| 1777979696 | 16.67° C | 70% | 1002.9 hPa | 0 mm | 0 m/s | 26 W/m² | - |
| 1777979392 | 16.67° C | 69% | 1003.2 hPa | 0 mm | 1.79 m/s, 204° | 25 W/m² | - |
| 1777979089 | 16.67° C | 69% | 1003.1 hPa | 0 mm | 0.89 m/s, 154° | 23 W/m² | - |
| 1777978786 | 16.67° C | 68% | 1003 hPa | 0 mm | 0 m/s | 19 W/m² | - |
| 1777978483 | 17.22° C | 68% | 1002.9 hPa | 0 mm | 1.79 m/s, 208° | 16 W/m² | - |
| 1777978178 | 16.67° C | 68% | 1003 hPa | 0 mm | 1.79 m/s, 208° | 13 W/m² | - |
* Rain latest hour (hover to see other rain measurements)
** Current wind speed in m/s (hover to see current wind gust speed)